Location: Copeville
(33.0796°N, 96.4155°W)
Time: 16:51:23
(UTC+00:00)

ISS - Visible Passes

Search period start: 18 June 2024 00:00
Search period end: 28 June 2024 00:00
Orbit: 411 x 425 km, 51.6° (Epoch: 18 June)

Date Brightness Start Highest point End Pass type
(mag) Time Alt. Az. Time Alt. Az. Time Alt. Az.
18 Jun -1.5 10:17:37 10° S 10:19:59 19° SE 10:22:24 10° E visible
20 Jun -3.7 10:18:16 17° SW 10:20:42 70° SE 10:24:01 10° NE visible
21 Jun -2.7 09:32:18 32° SSE 09:32:49 34° SE 09:35:52 10° ENE visible
22 Jun -1.1 08:46:14 15° E 08:46:14 15° E 08:47:17 10° E visible
22 Jun -2.5 10:19:10 14° W 10:21:32 32° NW 10:24:34 10° NNE visible
23 Jun -3.6 09:33:01 53° W 09:33:27 60° NW 09:36:45 10° NE visible
24 Jun -2.1 08:46:46 32° ENE 08:46:46 32° ENE 08:48:43 10° NE visible
24 Jun -1.2 10:20:49 10° WNW 10:22:30 13° NNW 10:24:11 10° N visible
25 Jun -1.8 09:33:22 18° WNW 09:34:15 20° NW 09:36:48 10° NNE visible
26 Jun -1.9 08:46:58 27° N 08:46:58 27° N 08:49:05 10° NNE visible
27 Jun -0.7 08:00:29 15° NE 08:00:29 15° NE 08:01:09 10° NE visible
